Simultaneous Nadir Overpasses (SNOs) Predictions

Prediction of SNOs between AQUA and METOP-A Satellite Orbit:

Table of predicted SNOs for the next 14.0 days since TLE Epoch: 7/26/2019
Index Date (AQUA) Time (AQUA) Lat,Lon (AQUA) SZA (AQUA ) Date (METOP-A) Time (METOP-A) Lat,Lon (METOP-A) SZA (METOP-A ) Distance(km) Time Diff (sec)
1 07/28/2019 16:08:17 75.30, -71.34 56.58 07/28/2019 16:07:54 75.31, -71.42 56.60 2.47 23
2 07/28/2019 16:57:45 -75.40, 96.03 123.30 07/28/2019 16:58:34 -75.39, 96.15 123.33 3.57 49
3 07/31/2019 10:52:56 -74.86,-171.35 123.26 07/31/2019 10:51:49 -74.76,-173.91 123.18 75.35 67
4 07/31/2019 11:42:33 75.35, -5.04 57.31 07/31/2019 11:42:17 75.33, -4.99 57.29 3.16 16
5 07/31/2019 12:32:00 -75.40, 162.46 122.63 07/31/2019 12:32:58 -75.37, 162.45 122.67 3.86 58
6 08/03/2019 06:27:16 -75.17,-105.73 122.20 08/03/2019 06:26:04 -75.13,-106.54 122.18 23.60 72
7 08/03/2019 07:16:47 75.36, 61.38 58.03 08/03/2019 07:16:39 75.35, 61.44 58.02 2.00 8
8 08/03/2019 08:06:14 -75.41,-131.12 121.91 08/03/2019 08:07:20 -75.40,-131.10 121.94 1.63 66
9 08/06/2019 02:01:34 -75.33, -39.73 121.28 08/06/2019 02:00:24 -75.30, -39.69 121.29 3.21 70
10 08/06/2019 02:51:02 75.37, 127.78 58.79 08/06/2019 02:51:02 75.37, 127.87 58.79 2.33 0
11 08/06/2019 03:40:29 -75.42, -64.72 121.15 08/06/2019 03:41:42 -75.47, -64.52 121.13 7.64 73
12 08/08/2019 21:35:49 -75.34, 26.67 120.48 08/08/2019 21:34:47 -75.32, 26.75 120.48 3.04 62
13 08/08/2019 22:25:17 75.39,-165.82 59.59 08/08/2019 22:25:25 75.40,-165.71 59.59 3.25 8




NCC Satellite Simultaneous Nadir Overpasses (SNOs) Prediction Service
